Погода в Старом Искитиме

Россия / Новосибирская область     54°36′42″N   83°23′28″E
темп.,
°C
ветер,
м/с
пор.,
м/с
влажн.,
%
обл.,
%
осадки,
мм/ч
давл.,
гПа
погр.,
м
2 декабря, чт
чт201:00−13ю3494100 0.0 102847
04:00−13ю359256 0.0 102760
07:00−11ююв478889 0.0 102696
10:00−12ююв368897 0.0 102683
13:00−6ю5128196 0.0 1024239
16:00−5ю51181100 0.0 1022226
19:00−5ю5137873 0.0 1021237
22:00−5ю6147694 0.0 1020254
3 декабря, пт
пт301:00−5ю6167483 0.0 1018286
04:00−3ю71971100 0.0 1015339
07:00−2ю9236889 0.0 1013465
10:000ююз81966100 0.0 1012539
13:000ююз71777100 0.0 1012564
16:000ююз71695100 1.4 1011633
19:00−1ююз61397100 2.6 1011541
22:00−1юз61298100 3.3 1012551
4 декабря, сб
сб401:000з61097100 5.5 1014652
04:00−3зюз6128896 0.1 1018361
07:00−5юз71686100 0.1 1020440
10:00−5юз71589100 0.0 1023594
13:00−4зюз71492100 0.1 1024809
16:00−5зюз61291100 0.2 1027763
19:00−5зюз51093100 0.4 1030766
22:00−6юз5109394 0.1 1032528
5 декабря, вс
вс501:00−12ююз499531 0.1 1034130
04:00−11ююз389674 0.0 1034139
07:00−11ю379798 0.0 1033121
10:00−11ююв389696 0.0 1032146
13:00−9ю499430 0.0 1030235
16:00−7ю4109455 0.0 1028205
19:00−9ю499651 0.0 1027159
22:00−9ю41093100 0.0 1026178
6 декабря, пн
пн601:00−9ю3993100 0.0 1025159
04:00−9ю4993100 0.0 1024157
07:00−10ю4994100 0.0 1023160
10:00−8ю41092100 0.0 1022213
13:00−4ю51191100 0.0 1020281
16:00−3ююз51190100 0.0 1019361
19:00−3ююз61387100 0.0 1018362
22:00−4ююз61486100 0.0 1017400